Location: Unspecified
(0.0000°N, 0.0000°E)
Time: 21:32:29
(UTC+00:00)

Vela 2A - Pass Details

Date: 28 November 2021
Orbit: 17927 x 188591 km, 32.3° (Epoch: 11 January)

Event Time Altitude Azimuth Distance (km) Brightness Sun altitude
Rises 09:10:33 0° 63° (ENE) 190,130 ? 46.1°
Reaches altitude 10° 09:57:53 10° 63° (ENE) 189,783 ? 55.7°
Maximum altitude 15:21:49 64° 359° (N) 188,676 ? 33.7°
Drops below altitude 10° 20:42:27 10° 295° (WNW) 193,520 ? -39.9°
Sets 21:28:32 0° 294° (WNW) 194,427 ? -49.7°
